Regional Weather Roundup
Issued by NWS Boston, MA

Home | Current Version | Previous Version | Text Only | Print | Product List | Glossary On
Versions: 1 2 3 4 5 6 7 8 9 10 11 12 13 14 15 16 17 18 19 20 21 22 23 24 25 26 27 28 29 30 31 32 33 34 35 36 37 38 39 40 41 42 43 44 45 46 47 48 49 50
000
ASUS41 KBOX 171610
RWRBOX

REGIONAL WEATHER ROUNDUP
NATIONAL WEATHER SERVICE TAUNTON MA
1100 AM EST SUN DEC 17 2017

NOTE:  "FAIR" INDICATES FEW OR NO CLOUDS BELOW 12,000 FEET WITH NO
SIGNIFICANT WEATHER AND/OR OBSTRUCTIONS TO VISIBILITY.

MAZALL-171700-
EASTERN MASSACHUSETTS

CITY           SKY/WX    TMP DP  RH WIND       PRES   REMARKS
BOSTON         MOSUNNY   25   4  40 NW14      30.27F WCI  13
BEVERLY        SUNNY     25   5  42 W12       30.25F WCI  14
LAWRENCE       SUNNY     24   6  46 W9        30.28F WCI  14
BEDFORD        SUNNY     24   3  40 W8        30.26F WCI  15
BLUE HILL        N/A     23   7  50 NW9       30.20F WCI  13
NORWOOD        SUNNY     27   5  39 NW9G20    30.27F WCI  18
MARSHFIELD     SUNNY     28   5  37 NW9       30.25F WCI  20
PLYMOUTH       SUNNY     27   6  41 NW9       30.25F WCI  18
TAUNTON        SUNNY     27   4  37 NW7       30.26F WCI  19
NEW BEDFORD    SUNNY     27   6  41 NW8       30.26F WCI  19
$$

MAZALL-171700-
CAPE COD AND THE ISLANDS

CITY           SKY/WX    TMP DP  RH WIND       PRES   REMARKS
FALMOUTH       SUNNY     25   3  39 VRB7G14   30.26S WCI  17
HYANNIS        SUNNY     28  11  48 NW9       30.23F WCI  19
CHATHAM        SUNNY     31  15  52 VRB7      30.24F WCI  24
PROVINCETOWN   SUNNY     28  15  58 NW17G24     N/A  WCI  16
NANTUCKET      SUNNY     28  11  48 NW12      30.25F WCI  18
MARTHAS VNYRD  SUNNY     27  10  49 NW12      30.26S WCI  17
$$

MAZALL-171700-
CENTRAL AND WESTERN MASSACHUSETTS

CITY           SKY/WX    TMP DP  RH WIND       PRES   REMARKS
WORCESTER      SUNNY     21   3  45 W16       30.20F WCI   7
FITCHBURG      SUNNY     26   6  42 W15       30.27S WCI  14
ORANGE         NOT AVBL
SPRINGFIELD    MOSUNNY   24   7  48 NW5       30.28F WCI  18
WESTFIELD      SUNNY     26  12  55 N10       30.28F WCI  16
NORTH ADAMS    SUNNY     15   7  70 CALM      30.28F
PITTSFIELD     SUNNY     21  11  65 NW10      30.23S WCI  10
$$

RIZALL-171700-
RHODE ISLAND

CITY           SKY/WX    TMP DP  RH WIND       PRES   REMARKS
PROVIDENCE     MOSUNNY   30   9  41 N8        30.28S WCI  22
NEWPORT        SUNNY     28  10  46 NW13      30.26S WCI  17
BLOCK ISLAND   SUNNY     30  13  49 NW12      30.28F WCI  20
SMITHFIELD     MOSUNNY   29   9  43 N9        30.24F WCI  20
WESTERLY       SUNNY     30   9  41 NW9G20    30.29F WCI  22
$$

CTZALL-171700-
CONNECTICUT

CITY           SKY/WX    TMP DP  RH WIND       PRES   REMARKS
BRADLEY INTL   MOSUNNY   26  11  52 NE3       30.29F
HARTFORD       SUNNY     27  12  53 NE5       30.31F WCI  22
BRIDGEPORT     CLOUDY    29  15  56 W7        30.30F WCI  22
DANBURY        CLOUDY    28  17  63 E5        30.28F WCI  23
GROTON         MOSUNNY   31  10  41 N10       30.28F WCI  22
NEW HAVEN      PTSUNNY   30  16  56 SE3       30.29F
CHESTER        FAIR      30   9  40 NW12G20   30.27F WCI  21
MERIDEN        SUNNY     29  11  47 N8        30.29F WCI  21
WILLIMANTIC    SUNNY     28  10  46 NW15      30.29S WCI  16
OXFORD         SUNNY     27  13  55 N10       30.25F WCI  17
$$

MEZ002-015-021-024-NHZ003-005-008-011-012-014-VTZ005-008-171700-
NORTHERN NEW ENGLAND

CITY           SKY/WX    TMP DP  RH WIND       PRES   REMARKS
PORTLAND ME    SUNNY     22   7  52 VRB5      30.23F WCI  16
BANGOR ME      SUNNY     17   6  62 NW8       30.18F WCI   7
CONCORD NH     SUNNY     20   5  52 NW10      30.25F WCI   9
MANCHESTER NH  MOSUNNY   22   5  48 NW3       30.25F
NASHUA NH      SUNNY     25   7  46 NW10      30.27F WCI  15
PORTSMOUTH NH  MOSUNNY   22   2  41 W10       30.23F WCI  11
JAFFREY NH     SUNNY     22   5  48 NW8       30.21F WCI  12
KEENE NH       FLURRIES  21  14  74 CALM      30.28F
BURLINGTON VT  MOSUNNY   13   4  67 CALM      30.33S
MT. WASHINGTON MOSUNNY   -2 -20  42 NW45        N/A  WCI -33
$$

NYZ052-076-171700-
EASTERN NEW YORK

CITY           SKY/WX    TMP DP  RH WIND       PRES   REMARKS
ALBANY         MOSUNNY   21  13  71 CALM      30.33S
NEW YORK CITY  CLOUDY    35  21  56 NE5       30.29F WCI  31
$$

ANZALL-171700-
MARINE OBSERVATIONS

STATION/POSITION TIME  TEMP    WIND        PRES    VSBY  WAVE
                       AIR SEA DIR/SP/G                  HT/PER
                 (UTC) (F)     (DEG/KT/KT) (MB)    (MI)  (FT/S)
BOSTON BUOY      1550   25 47  310/ 17/ 21 1023.9F         3/ 4
BUZZARDS BAY     1500   26     350/ 15/ 16 1025.6S
NANTUCKET SOUND  1550   27 41  320/ 14/ 16 1024.3F         2/ 3
MASS BAY-STELLWA 1504   24 46  320/ 17/ 23 1023.9S         3/ 4
ISLE OF SHOALS   1500   20     310/ 16/ 19 1024.1R
S OF BLOCK IS    1543      52                N/A           5/ 7
$$

......................KEY.........................
  SKY/WX - SKY CONDITION/PRESENT WEATHER
  TMP    - TEMPERATURE IN FAHRENHEIT
  DWPT   - DEWPOINT IN FAHRENHEIT
  RH     - RELATIVE HUMIDITY IN PERCENT
  WIND   - DIRECTION AND SPEED IN MPH
  PRES   - MEAN SEA LEVEL PRESSURE IN INCHES OF HG
  WCI    - WIND CHILL INDEX
  VSB    - VISIBILITY IN MILES
  HX     - HEAT INDEX
  TC     - TEMPERATURE IN CELSIUS
  VRB    - VARIABLE WIND DIRECTION
  N/A    - NOT AVAILABLE



USA.gov is the U.S. government's official web portal to all federal, state and local government web resources and services.